Location: Most
(50.5133°N, 13.6207°E)
Time: 01:37:26
(UTC+02:00)

ISS - Pass Details

Date: 25 September 2021
Orbit: 417 x 423 km, 51.6° (Epoch: 22 October)

Event Time Altitude Azimuth Distance (km) Brightness Sun altitude
Rises 21:44:05 0° 284° (WNW) 2,367 1.2 -26.1°
Reaches altitude 10° 21:46:11 10° 284° (WNW) 1,503 -0.1 -26.3°
Enters shadow 21:47:40 24° 282° (WNW) 918 -1.5 -26.5°
